This is the latest recevied weather packets stored in our database for station/object SV9FBP. If no packets are shown the sender has not sent any weather packets the latest 10 day(s).
| Time | Temp. | Humidity | Pressure | Rain* | Wind** | Luminosity | Snow |
|---|---|---|---|---|---|---|---|
| 1777758132 | 13.33° C | 61% | 1010.1 hPa | 0 mm | - | - | - |
| 1777757230 | 13.33° C | 60% | 1010.2 hPa | 0 mm | - | - | - |
| 1777756329 | 13.89° C | 60% | 1010.2 hPa | 0 mm | - | - | - |
| 1777755426 | 14.44° C | 59% | 1010.5 hPa | 0 mm | - | - | - |
| 1777754524 | 14.44° C | 56% | 1010.5 hPa | 0 mm | - | - | - |
| 1777753622 | 14.44° C | 55% | 1010.5 hPa | 0 mm | - | - | - |
| 1777752720 | 14.44° C | 56% | 1010.6 hPa | 0 mm | - | - | - |
| 1777751818 | 14.44° C | 57% | 1010.9 hPa | 0 mm | - | - | - |
| 1777750915 | 14.44° C | 59% | 1010.8 hPa | 0 mm | - | - | - |
| 1777750013 | 14.44° C | 58% | 1010.7 hPa | 0 mm | - | - | - |
| 1777749111 | 14.44° C | 57% | 1010.7 hPa | 0 mm | - | - | - |
| 1777748209 | 13.89° C | 56% | 1010.7 hPa | 0 mm | - | - | - |
| 1777747307 | 13.89° C | 56% | 1010.6 hPa | 0 mm | - | - | - |
| 1777746405 | 13.89° C | 55% | 1010.7 hPa | 0 mm | - | - | - |
| 1777745502 | 13.89° C | 55% | 1010.6 hPa | 0 mm | - | - | - |
| 1777744601 | 13.89° C | 53% | 1010.9 hPa | 0 mm | - | - | - |
| 1777743699 | 14.44° C | 52% | 1010.6 hPa | 0 mm | - | - | - |
| 1777742799 | 14.44° C | 51% | 1010.8 hPa | 0 mm | - | - | - |
| 1777741895 | 14.44° C | 50% | 1010.6 hPa | 0 mm | - | - | - |
| 1777740992 | 14.44° C | 50% | 1010.4 hPa | 0 mm | - | - | - |
| 1777740092 | 15° C | 51% | 1010.1 hPa | 0 mm | - | - | - |
| 1777739187 | 15° C | 52% | 1010.3 hPa | 0 mm | - | - | - |
| 1777738285 | 15° C | 53% | 1010.3 hPa | 0 mm | - | - | - |
| 1777737384 | 15° C | 55% | 1010.3 hPa | 0 mm | - | - | - |
| 1777736481 | 15° C | 55% | 1010.5 hPa | 0 mm | - | - | - |
* Rain latest hour (hover to see other rain measurements)
** Current wind speed in m/s (hover to see current wind gust speed)